#timestamp,LO_Frequency,Hit,StdDev 
1673924415.6,286046999.9,N
1673924435.4,286047000.6,N
1673924455.2,286047002.5,N
1673924475.1,286046998.9,N
1673924476.0,286046998.9,N
1673924495.8,286046998.7,N
1673924515.7,286046999.3,N
1673924535.5,286046996.6,N
1673924555.3,286046999.3,N
1673924575.2,286046998.5,N
1673924595.0,286046999.4,N
1673924595.9,286046999.4,N
1673924615.7,286046998.5,N
1673924635.6,286046998.7,N
1673924655.4,286046999.7,N
1673924675.3,286046999.7,N
1673924695.1,286047002.3,N
1673924715.8,286047000.5,N
1673924735.7,286046998.2,N
1673924755.5,286046998.6,N
1673924775.4,286047000.7,N
1673924795.2,286046998.4,N
1673924815.0,286047001.2,N
1673924815.9,286047001.2,N
1673924835.8,286047002.2,N
1673924855.6,286047004.9,N
1673924875.4,286047007.6,Y
1673924895.3,286047004.9,P
1673924915.1,286047007.3,N
1673924935.9,286047006.7,N
1673924955.7,286047007.6,N
1673924975.5,286047003.5,N
1673924995.4,286047005.1,N
1673925015.2,286047005.1,N
1673925035.0,286047005.5,N
1673925035.9,286047005.5,N
1673925055.8,286047004.1,N
1673925075.6,286047005.7,N
1673925095.5,286047001.8,N
1673925115.3,286047001.7,N
1673925135.1,286047003.0,N
1673925155.9,286047006.0,N
1673925175.7,286047004.3,N
1673925195.5,286047000.2,N
1673925215.4,286046999.8,N
1673925235.2,286047004.1,N
1673925255.1,286047004.6,N
1673925256.0,286047004.6,N
1673925275.8,286047005.3,N
1673925295.6,286047002.6,N
1673925315.5,286047004.2,N
1673925335.3,286047003.0,N
1673925355.1,286047003.6,N
1673925375.9,286047002.5,N
1673925395.7,286047001.7,N
1673925415.6,286047001.5,N
1673925435.4,286047002.4,N
1673925455.2,286047001.9,N
1673925475.1,286047001.8,N
1673925476.0,286047001.8,N
1673925495.8,286047003.8,N
1673925515.6,286047005.3,Y
1673925535.5,286047004.0,P
1673925555.3,286047004.4,P
1673925575.2,286047002.2,P
1673925595.9,286047001.5,N
1673925615.7,286047004.1,Y
1673925635.6,286046998.5,P
1673925655.4,286046999.2,N
1673925675.3,286047000.5,N
1673925695.1,286047000.4,N
1673925696.0,286047000.4,N
1673925715.8,286046998.6,N
1673925735.7,286046998.4,N
1673925755.5,286047001.1,N
1673925775.4,286047000.1,N
1673925795.2,286046999.0,N
1673925815.0,286046997.2,N
1673925815.9,286046997.2,N
1673925835.8,286046999.6,N
1673925855.6,286046997.3,N
1673925875.5,286046996.9,N
1673925895.3,286046995.2,N
1673925915.1,286046995.5,N
1673925935.9,286046994.0,Y
1673925955.7,286046997.0,P
1673925975.5,286046994.9,P
1673925995.4,286046996.4,N
1673926015.2,286046993.7,Y
1673926035.1,286047000.8,P
1673926036.0,286047000.8,N
1673926055.8,286047000.4,N
1673926075.6,286046999.8,N
1673926095.5,286047001.2,N
1673926115.3,286046998.5,N
1673926135.1,286047001.1,N
1673926155.9,286047000.3,N
1673926175.7,286047002.6,N
1673926195.6,286047002.2,N
1673926215.4,286047003.1,N
1673926235.2,286047005.4,Y
1673926255.1,286047003.6,P
1673926256.0,286047003.6,N
1673926275.8,286047005.3,P
1673926295.7,286047004.1,N
1673926315.5,286047004.4,N
1673926335.3,286047004.3,N
1673926355.2,286047001.8,N
1673926375.0,286047001.6,N
1673926375.9,286047001.6,N
1673926395.8,286047001.5,N
1673926415.6,286047003.8,N
1673926435.4,286047005.8,Y
1673926455.3,286047000.4,P
1673926475.1,286047000.3,N
1673926495.8,286047002.0,N
1673926515.7,286047000.3,N
1673926535.5,286046999.7,N
1673926555.4,286047002.6,N
1673926575.2,286047000.9,N
1673926595.0,286046998.9,N
1673926595.9,286046998.9,N
1673926615.8,286046999.6,N
1673926635.6,286046997.1,N
1673926655.4,286046996.6,N
1673926675.3,286046999.6,N
1673926695.1,286046997.5,N
1673926715.9,286046995.0,N
1673926735.7,286046995.2,N
1673926755.5,286046997.6,N
1673926775.4,286046997.5,N
1673926795.2,286046996.5,N
1673926815.0,286046999.6,N
1673926815.9,286046999.6,N
1673926835.8,286046999.3,N
1673926855.6,286046995.0,N
1673926875.5,286046999.6,N
1673926895.3,286046997.0,N
1673926915.1,286046998.8,N
1673926935.9,286046999.3,N
1673926955.7,286046996.7,N
1673926975.6,286046999.6,N
1673926995.4,286046995.0,N
1673927015.2,286046997.4,N
1673927035.1,286046999.6,N
1673927036.0,286046999.6,N
1673927055.8,286046998.0,N
1673927075.7,286046999.5,N
1673927095.5,286047000.3,N
1673927115.3,286047001.2,N
1673927135.2,286047000.6,N
1673927155.9,286047000.3,N
1673927175.7,286046998.7,N
1673927195.6,286046998.5,N
1673927215.4,286046998.3,N
1673927235.2,286046999.2,N
1673927255.1,286046998.3,N
1673927256.0,286046998.3,N
1673927275.8,286047002.1,N
1673927295.7,286047002.2,N
1673927315.5,286047001.1,N
1673927335.3,286046999.0,N
1673927355.2,286047000.9,N
1673927375.0,286046998.3,N
1673927375.9,286046998.3,N
1673927395.8,286046999.5,N
1673927415.6,286046997.0,N
1673927435.4,286046996.8,N
1673927455.3,286046999.6,N
1673927475.1,286046999.6,N
1673927495.8,286046996.7,N
1673927515.7,286047000.5,N
1673927535.5,286047002.4,N
1673927555.4,286047001.5,N
1673927575.2,286047001.5,N
1673927595.0,286047000.9,N
1673927595.9,286047000.9,N
1673927615.8,286046998.6,N
1673927635.6,286047000.6,N
1673927655.4,286047001.6,N
1673927675.3,286047002.7,N
1673927695.1,286047000.6,N
1673927715.9,286046998.4,N
1673927735.7,286046999.9,N
1673927755.5,286046999.0,N
1673927775.4,286047001.2,N
1673927795.2,286046999.3,N
1673927815.0,286047001.2,N
1673927815.9,286047001.2,N
1673927835.8,286046998.5,N
1673927855.6,286047000.6,N
1673927875.5,286047002.0,N
1673927895.3,286046999.9,N
1673927915.2,286047002.6,N
1673927935.9,286047001.4,N
1673927955.7,286047002.0,N
1673927975.6,286046999.7,N
1673927995.4,286047003.6,N
